     2              OBSERVATION DATA    GPS                 RINEX VERSION / TYPE
teqc 1998Mar9 19980311 23:30:36UTC                          PGM / RUN BY / DATE
                                                            COMMENT
Original Marker Name: unknown                               COMMENT
Campaign Name: Cholame 1989                                 COMMENT
4-Character Station Name: NAPO                              COMMENT
6-Character Antenna Code: TI4100                            COMMENT
Vertical Measurement Point: PAE                             COMMENT
Vertical Offset to Rinex Ref. Point: 0.0000                 COMMENT
Radial Measurement Point: PAE                               COMMENT
Radial Offset to Rinex Ref. Point: 0.0842                   COMMENT
Antenna Height from Field Measurement: 1.1820 m             COMMENT
Original XYZ: 0.0000 0.0000 0.0000                          COMMENT
New XYZ position is based on association with SCEC monument COMMENT
E1F1C5U3+0011. Position of that monument is believed to be  COMMENT
valid to within 1 m horizontally; vertical accuracy         COMMENT
should be no worse than 3-times this value.                 COMMENT
                                                            COMMENT
Revised Rinex header created by UCSD GPS archive for        COMMENT
GSAC on 28-May-1999 (1999:148) 19:16:08 GMT                 COMMENT
For assistance contact dagnew@ucsd.edu or hjohnson@ucsd.edu COMMENT
                                                            COMMENT
NAPOLEAN                                                    MARKER NAME
unknown UCLA                                                OBSERVER / AGENCY
UN04 TI 4100 2                                              REC # / TYPE / VERS
UN04 TI 4100                                                ANT # / TYPE
 -2596247.0000 -4504210.0000  3683975.0000                  APPROX POSITION XYZ
        1.1790        0.0000        0.0000                  ANTENNA: DELTA H/E/N
     1     1     0                                          WAVELENGTH FACT L1/2
     4    P1    P2    L1    L2                              # / TYPES OF OBSERV
     0                                                      INTERVAL
  1989    11    10    10    29   59.000000                  TIME OF FIRST OBS
  1989    11    10    17     8   59.000000                  TIME OF LAST OBS
     0                                                      # OF SATELLITES
                                                            END OF HEADER
 89 11 10 10 29 59.3400000  0  4G 2G 6G11G 9
  21127644.457    21127646.616     1682079.256 8   -650363.139 8
  19765506.665    19765508.033     4200643.771 9  -6633781.256 8
  21408714.158    21408717.207     1418094.762 8  -5766623.315 8
  22558965.778    22558968.210     1871148.621 9   -137724.158 7
 89 11 10 10 30 29.0800000  0  4G 2G 6G11G 9
  21142385.153    21142385.803     1759540.371 8   -590003.865 8
  19755397.373    19755399.618     4147522.965 9  -6675174.081 9
  21388654.277    21388657.467     1312679.135 8  -5848765.319 9
  22542751.193    22542753.396     1785941.937 9   -204118.948 8
 89 11 10 10 30 59.0800000  0  4G 2G 6G11G 9
  21157266.551    21157268.196     1837743.561 9   -529066.351 8
  19745224.912    19745225.346     4094062.102 9  -6716831.870 8
  21368458.992    21368463.270     1206554.386 9  -5931459.891 9
  22526387.727    22526389.286     1699950.230 9   -271125.436 8
 89 11 10 10 31 29.0800000  0  4G 2G 6G11G 9
  21172160.216    21172161.737     1916011.478 9   -468078.389 9
  19735075.597    19735076.724     4040727.692 9  -6758391.144 8
  21348306.065    21348309.583     1100646.124 7  -6013985.745 6
  22510017.063    22510018.266     1613918.736 9   -338162.942 7
 89 11 10 10 31 59.0800000  0  4G 2G 6G11G 9
  21187065.862    21187068.153     1994343.528 9   -407040.458 8
  19724951.417    19724951.374     3987521.153 9  -6799850.773 8
  21328194.165    21328197.049      994957.304 9  -6096340.626 9
  22493638.318    22493639.047     1527848.193 9   -405230.890 8
 89 11 10 10 32 29.0800000  0  4G 2G 6G11G 9
  21201983.993    21201986.140     2072738.639 8   -345953.380 9
  19714850.236    19714851.701     3934443.828 9  -6841209.722 9
  21308124.882    21308127.098      889491.020 9  -6178522.127 9
  22477251.952    22477254.126     1441739.363 9   -472328.689 7
 89 11 10 10 32 59.0800000  0  4G 2G 6G11G 9
  21216914.118    21216915.451     2151195.374 9   -284818.281 8
  19704775.512    19704776.371     3881497.502 9  -6882466.588 8
  21288097.849    21288101.147      784250.189 9  -6260527.924 8
  22460858.401    22460859.146     1355592.902 8   -539455.796 8
 89 11 10 10 33 29.0800000  0  4G 2G 6G11G 9
  21231855.129    21231856.831     2229712.688 7   -223635.984 9
  19694725.216    19694727.127     3828683.231 8  -6923620.553 7
  21268114.277    21268118.150      679237.610 8  -6342355.858 8
  22444458.105    22444461.519     1269409.320 9   -606611.817 8
 89 11 10 10 33 59.0800000  0  4G 2G 6G11G 9
  21246807.998    21246810.724     2308290.269 9   -162406.743 9
  19684700.668    19684701.602     3776002.639 8  -6964670.347 8
  21248175.182    21248178.915      574456.336 9  -6424003.571 9
  22428051.559    22428053.268     1183189.364 7   -673796.152 7
 89 11 10 10 34 29.0800000  0  4G 2G 6G11G 9
  21261771.921    21261774.245     2386927.055 9   -101131.347 9
  19674701.269    19674702.267     3723457.215 9  -7005614.825 7
  21228280.420    21228284.291      469908.887 9  -6505469.071 8
  22411637.068    22411638.349     1096933.549 8   -741008.461 7
 89 11 10 10 34 59.0800000  0  4G 2G 6G11G 9
  21276747.483    21276750.112     2465622.061 9    -39810.597 8
  19664728.149    19664728.544     3671048.265 7  -7046452.971 7
  21208430.225    21208433.782      365598.278 9  -6586750.033 9
  22395218.401    22395218.775     1010642.759 8   -808248.033 6
 89 11 10 10 35 29.0800000  0  4G 2G 6G11G 9
  21291734.708    21291735.028     2544373.785 9     21554.364 9
  19654781.187    19654782.618     3618777.317 9  -7087183.581 7
  21188627.143    21188629.655      261527.555 9  -6667844.068 9
  22378790.101    22378790.406      924317.362 7   -875514.586 8
 89 11 10 10 35 59.0800000  0  4G 2G 6G11G 9
  21306730.274    21306731.889     2623181.541 9     82962.960 9
  19644860.628    19644862.207     3566645.950 9  -7127805.424 8
  21168867.932    21168872.078      157699.614 9  -6748748.923 9
  22362356.543    22362358.149      837958.279 7   -942807.324 7
 89 11 10 10 36 29.0800000  0  4G 2G 6G11G 9
  21321737.307    21321738.394     2702045.010 8    144414.994 8
  19634968.292    19634969.466     3514655.631 9  -7168317.345 8
  21149158.317    21149160.346       54116.802 9  -6829462.766 9
  22345916.294    22345918.980      751566.372 8  -1010125.659 9
 89 11 10 10 36 59.0800000  0  4G 2G 6G11G 9
  21336755.430    21336758.145     2780963.210 8    205909.652 8
  19625101.079    19625102.283     3462807.893 9  -7208718.159 8
  21129493.605    21129496.875      -49217.658 9  -6909983.092 8
  22329472.022    22329471.727      665142.275 7  -1077469.078 8
 89 11 10 10 37 29.0800000  0  4G 2G 6G11G 9
  21351782.933    21351785.503     2859934.913 9    267446.008 9
  19615262.590    19615262.563     3411104.441 9  -7249006.555 7
  21109877.263    21109881.260     -152300.522 9  -6990307.368 9
  22313018.994    22313021.087      578686.722 8  -1144837.026 8
 89 11 10 10 37 59.0800000  0  4G 2G 6G11G 9
  21366820.274    21366823.405     2938959.414 8    329023.493 8
  19605450.983    19605452.588     3359546.832 9  -7289181.290 8
  21090310.631    21090313.758     -255128.874 8  -7070433.330 9
  22296561.083    22296562.584      492200.502 9  -1212228.867 8
 89 11 10 10 38 29.0800000  0  4G 2G 6G11G 9
  21381868.098    21381870.327     3018035.522 9    390641.200 9
  19595668.252    19595669.802     3308136.273 9  -7329241.455 8
  21070791.791    21070793.788     -357700.338 9  -7150359.111 8
  22280097.889    22280099.532      405684.327 8  -1279644.050 7
 89 11 10 10 38 59.0800000  0  4G 2G 6G11G 9
  21396925.733    21396928.711     3097162.520 8    452298.572 9
  19585913.993    19585913.707     3256874.473 9  -7369185.691 8
  21051322.635    21051324.517     -460011.934 9  -7230082.404 9
  22263628.315    22263629.834      319138.979 8  -1347081.963 8
 89 11 10 10 39 29.0800000  0  4G 2G 6G11G 9
  21411993.195    21411994.482     3176340.238 9    513995.461 8
  19576187.517    19576188.010     3205763.117 9  -7409012.722 8
  21031903.018    21031906.086     -562060.464 9  -7309600.705 9
  22247153.502    22247156.039      232565.469 9  -1414541.824 8
 89 11 10 10 39 59.0800000  0  4G 2G 6G11G 9
  21427069.661    21427072.190     3255567.394 9    575730.879 8
  19566489.339    19566490.430     3154803.778 9  -7448721.281 7
  21012534.543    21012537.485     -663843.278 9  -7388911.943 8
  22230673.856    22230675.586      145964.200 9  -1482023.324 8
 89 11 10 10 40 29.0800000  0  4G 2G 6G11G 9
  21442154.849    21442156.454     3334842.832 8    637503.925 9
  19556821.983    19556823.360     3103997.854 9  -7488310.303 9
  20993217.103    20993220.042     -765357.873 9  -7468014.195 8
  22214188.801    22214190.525       59336.252 9  -1549525.585 9
 89 11 10 10 40 59.0800000  0  4G 2G 6G11G 9
  21457249.318    21457252.068     3414166.264 9    699314.364 9
  19547182.995    19547184.098     3053346.979 8  -7527778.519 8
  20973951.519    20973953.542     -866600.930 9  -7546904.847 9
  22197699.140    22197700.680      -27318.078 9  -1617048.411 9
 89 11 10 10 41 29.0800000  0  4G 2G 6G11G 9
  21472352.854    21472355.108     3493536.345 9    761161.151 8
  19537574.964    19537575.668     3002852.715 9  -7567124.697 7
  20954737.358    20954738.881     -967569.893 9  -7625581.932 8
  22181204.349    22181205.930     -113997.544 9  -1684590.826 9
 89 11 10 10 41 59.0800000  0  4G 2G 6G11G 9
  21487466.049    21487467.611     3572952.297 9    823043.664 9
  19527995.562    19527997.850     2952516.896 9  -7606347.413 8
  20935575.793    20935578.980    -1068261.921 9  -7704043.220 9
  22164705.818    22164708.809     -200701.161 9  -1752152.060 8
 89 11 10 10 42 29.0800000  0  4G 2G 6G11G 9
  21502585.993    21502590.058     3652414.062 8    884961.892 8
  19518447.295    19518448.733     2902340.971 9  -7645445.518 9
  20916468.247    20916471.187    -1168674.082 9  -7782286.429 9
  22148202.493    22148203.821     -287428.232 8  -1819731.587 8
 89 11 10 10 42 59.0800000  0  4G 2G 6G11G 9
  21517716.419    21517718.436     3731920.366 8    946914.807 9
  19508930.627    19508930.549     2852326.404 9  -7684417.907 8
  20897414.873    20897417.055    -1268803.600 9  -7860309.393 8
  22131694.956    22131695.978     -374178.355 9  -1887329.048 9
 89 11 10 10 43 29.0800000  0  4G 2G 6G11G 9
  21532854.379    21532856.362     3811470.242 8   1008901.691 9
  19499443.910    19499445.191     2802475.153 8  -7723263.025 8
  20878415.384    20878418.841    -1368647.600 9  -7938109.893 8
  22115181.700    22115183.138     -460950.155 8  -1954943.407 9
 89 11 10 10 43 59.0800000  0  4G 2G 6G11G 9
  21547999.933    21548002.543     3891063.122 9   1070922.082 9
  19489988.858    19489989.884     2752788.740 8  -7761979.691 8
  20859469.873    20859471.997    -1468203.366 9  -8015685.769 9
  22098665.809    22098666.768     -547742.741 8  -2022573.972 8
 89 11 10 10 44 29.0800000  0  4G 2G 6G11G 9
  21563153.997    21563156.789     3970698.460 9   1132975.561 9
  19480565.557    19480566.279     2703268.714 9  -7800566.728 9
  20840580.601    20840582.699    -1567468.126 9  -8093034.898 9
  22082146.201    22082147.159     -634555.353 9  -2090220.150 7
 89 11 10 10 44 59.0800000  0  4G 2G 6G11G 9
  21578315.748    21578318.383     4050374.853 9   1195061.013 9
  19471174.108    19471175.728     2653916.468 9  -7839023.015 9
  20821747.332    20821749.944    -1666439.303 9  -8170155.261 8
  22065621.988    22065623.809     -721387.467 8  -2157881.527 7
 89 11 10 10 45 29.0800000  0  4G 2G 6G11G 9
  21593485.881    21593488.015     4130091.804 8   1257178.099 8
  19461814.795    19461816.055     2604734.023 9  -7877346.989 8
  20802969.470    20802971.538    -1765114.134 9  -8247044.712 8
  22049096.042    22049095.929     -808237.752 8  -2225557.055 8
 89 11 10 10 45 59.0800000  0  4G 2G 6G11G 9
  21608662.683    21608665.325     4209848.666 8   1319326.272 8
  19452488.596    19452489.846     2555723.036 8  -7915537.360 9
  20784248.595    20784250.863    -1863489.712 9  -8323700.975 8
  22032565.634    22032565.747     -895105.308 9  -2293246.047 7
 89 11 10 10 46 29.0800000  0  4G 2G 6G11G 9
  21623848.563    21623850.592     4289644.655 9   1381504.931 8
  19443194.945    19443196.198     2506885.222 9  -7953592.785 7
  20765586.005    20765588.303    -1961562.951 9  -8400121.650 9
  22016031.788    22016032.894     -981989.282 9  -2360947.822 7
 89 11 10 10 46 59.0800000  0  4G 2G 6G11G 9
  21639040.394    21639041.819     4369479.203 9   1443713.640 9
  19433934.496    19433935.697     2458222.494 9  -7991511.778 8
  20746981.609    20746984.004    -2059330.989 9  -8476304.494 9
  21999495.203    21999495.229    -1068888.259 9  -2428661.297 8
 89 11 10 10 47 29.0800000  0  4G 2G 6G11G 9
  21654239.379    21654241.050     4449351.476 8   1505951.732 9
  19424707.937    19424708.389     2409736.235 9  -8029293.266 9
  20728435.416    20728437.899    -2156791.584 9  -8552247.775 8
  21982955.887    21982957.412    -1155801.652 8  -2496386.009 8
 89 11 10 10 47 59.0800000  0  4G 2G 6G11G 9
  21669444.418    21669447.057     4529260.388 8   1568218.380 9
  19415515.263    19415517.285     2361428.505 9  -8066935.637 8
  20709948.676    20709950.817    -2253941.556 9  -8627949.015 8
  21966413.972    21966415.379    -1242728.467 9  -2564121.163 9
 89 11 10 10 48 29.0800000  0  4G 2G 6G11G 9
  21684658.949    21684661.671     4609205.994 9   1630513.628 9
  19406357.814    19406358.178     2313301.153 9  -8104437.481 8
  20691521.110    20691522.508    -2350777.877 9  -8703405.866 8
  21949869.661    21949870.637    -1329667.418 9  -2631865.765 8
 89 11 10 10 48 59.0800000  0  4G 2G 6G11G 9
  21699878.375    21699880.854     4689187.540 9   1692836.875 9
  19397232.791    19397234.234     2265355.651 9  -8141797.590 8
  20673154.194    20673156.534    -2447298.202 9  -8778616.464 8
  21933324.414    21933325.671    -1416617.756 9  -2699619.266 7
 89 11 10 10 49 29.0800000  0  4G 2G 6G11G 9
  21715105.241    21715107.684     4769203.839 9   1755187.190 9
  19388144.305    19388146.236     2217593.516 9  -8179014.828 8
  20654847.664    20654849.728    -2543500.337 9  -8853579.157 7
  21916776.719    21916777.821    -1503578.663 9  -2767381.030 9
